STARLINK-4610, 53610

Orbit data source: Space-Track

STARLINK-4610, 53610 is a payload satellite owned by SpaceX/Seattle (US) in LEO that was launched on Sun, 28 Aug 2022 UTC via an FALCON 9 launch vehicle from the Air Force Eastern Test Range (AFETR). Payload-class satellites include a variety of spacecraft equipped with specific instruments for various scientific and technological missions. These include communications satellites like Starlink; space stations such as the ISS; scientific satellites like the Hubble; Earth observation satellites from companies like Planet Labs, Umbra, and HawkEye 360; GPS; miniature CubeSats for education and research; and military/defense satellites.

Loading next visibility...
Identifier
53610, 2022-104Y
Orbit
LEO
Country
Flag of USUS
Related business
Manufacturer
SpaceX/Seattle
Mission
Operational Commercial Communications
Bus & Motor
STARLINK, Unknown motor
Mass
300 kg wet, ~290 kg dry
Launch date (UTC)
2022-08-28 (3 years ago)
Launch vehicle
FALCON 9
Launch site
Air Force Eastern Test Range (AFETR)
Object type
Payload
Rocket body
Debris
Shape & HBR
Box + 1 Pan, 10.1 m
Radar Cross Section
13.562 m², Large (>1 m²)

Expand to show TLE details & history
Last TLE update: 2 days ago

TLE from 2 days ago
0 STARLINK-4610
1 53610U 22104Y   25300.21845598  .00000180  00000-0  29407-4 0  9991
2 53610  53.2158 113.4194 0001419  85.6702 274.4452 15.08839402175480
Epoch: 2025-10-27T05:14Z
TLE epoch observation values (Epoch: 2025-10-27T05:14:34.596Z)
Latitude
-0.00005°
Longitude
-1.04824°
Altitude
540.567 km
Speed
7.593 km/s
True Right ascension
07h 33m 40s
True Declination
0° 00' 00"
Sunlit
Object was in daylight at epoch
Visualization orbit readout
Latitude
Unknown
Longitude
Unknown
Altitude
Unknown
Speed
Unknown
Apparent Right ascension
Unknown
Apparent Declination
Unknown
Sunlit
N/A
Visualization observer readout
Local Sidereal Time
03:25:56
Azimuth
Unknown
Elevation
Unknown
Doppler factor
Unknown
Orbital elements
Apogee altitude
540.972 km
Perigee altitude
539.009 km
Semi-major axis
6,918.127 km
Eccentricity
0.00014
Inclination
53.2158°
RAAN
113.4194°
Arg. of periapsis
85.6702°
True anomaly
274.42899°
Mean anomaly
274.4452°
Eccentric anomaly
274.43709°
Mean motion
3.7719 °/min
Orbital period
95.44 mins
BSTAR
0.000029407
Loading maneuver chart data...
Computing Atmospheric mass density...
Loading historical data...
Loading historical data...
Loading historical data...
Loading historical data...
Loading historical data...
Loading historical data...
Loading historical data...

Documentation

Showing up to 5 results
|